Home   Weather   Bari   Past weeks

Flag for Italy Past Weather in Bari, Italy — Yesterday and Last 2 Weeks

Now
59 °F

Light rain. Passing clouds.


Feels Like: 58 °F
Forecast: 52 / 58 °F
Wind: 8 mph from South

Location: Bari / Palese Macchie

Current Time: Apr 28, 2017 at 6:37:06 am

Latest Report: Apr 28, 2017 at 5:50 am


Visibility: 6 mi

Pressure: 29.86 "Hg

Humidity: 88%

Dew Point: 55 °F

Location of BariLocation

Past Weather in Bari — Graph

°F

Bari Temperature Yesterday

Maximum temperature yesterday: 75 °F (at 12:50 pm)
Minimum temperature yesterday: 59 °F (at 12:50 am)
Average temperature yesterday: 65 °F

High & Low Weather Summary for the Past Weeks

 TemperatureHumidityPressure
High75 °F (Apr 27, 12:50 pm)94% (Apr 25, 4:50 am)30.30 "Hg (Apr 25, 4:50 am)
Low41 °F (Apr 20, 3:50 am)38% (Apr 22, 12:50 pm)29.86 "Hg (Apr 19, 9:20 am)
Average55 °F67%30.06 "Hg
* Reported Apr 19 9:20 am — Apr 28 4:50 am, Bari, Weather by CustomWeather, © 2017

Note: Actual official high and low records may vary slightly from our data, if they occured in-between our weather recording intervals... More about our weather records

Advertising

Bari Weather History for the Previous 24 Hours

Scroll right to see more
 ConditionsComfort  
Time TempWeatherWind HumidityBarometerVisibility
4:50 am
Fri, Apr 28
61 °FClear.3 mph83%29.89 "Hg10 mi
4:20 am61 °FClear.3 mph83%29.89 "Hg10 mi
3:50 am61 °FClear.2 mph83%29.89 "Hg10 mi
3:20 am61 °FClear.6 mph83%29.86 "Hg10 mi
2:50 am59 °FClear.3 mph77%29.86 "Hg10 mi
2:20 am61 °FClear.3 mph77%29.92 "Hg10 mi
1:50 am61 °FClear.3 mph77%29.92 "Hg10 mi
1:20 am61 °FPassing clouds.7 mph77%29.92 "HgN/A
12:50 am61 °FPassing clouds.6 mph77%29.92 "HgN/A
12:20 am61 °FPassing clouds.2 mph77%29.92 "HgN/A
11:50 pm
Thu, Apr 27
61 °FPassing clouds.10 mph77%29.89 "HgN/A
11:20 pm63 °FClear.10 mph73%29.89 "Hg10 mi
10:50 pm63 °FPassing clouds.7 mph73%29.89 "HgN/A
10:20 pm63 °FClear.13 mph73%29.89 "Hg10 mi
9:50 pm63 °FClear.13 mph73%29.89 "Hg10 mi
9:20 pm63 °FClear.13 mph73%29.89 "Hg10 mi
8:50 pm63 °FClear.16 mph73%29.89 "Hg10 mi
8:20 pm64 °FClear.14 mph73%29.89 "Hg10 mi
7:50 pm64 °FClear.13 mph68%29.89 "Hg10 mi
7:20 pm66 °FPassing clouds.10 mph68%29.89 "HgN/A
6:50 pm66 °FPassing clouds.9 mph64%29.89 "HgN/A
6:20 pm66 °FPassing clouds.9 mph64%29.89 "HgN/A
5:50 pm68 °FPassing clouds.10 mph64%29.89 "HgN/A
5:20 pm72 °FPassing clouds.10 mph57%29.89 "HgN/A
4:50 pm72 °FSunny.14 mph57%29.89 "Hg10 mi
4:20 pm73 °FPassing clouds.14 mph50%29.89 "HgN/A
3:50 pm75 °FPassing clouds.12 mph50%29.89 "HgN/A
3:20 pm75 °FPassing clouds.9 mph50%29.89 "Hg6 mi
2:20 pm75 °FPassing clouds.9 mph54%29.92 "Hg6 mi
1:50 pm75 °FPassing clouds.9 mph50%29.92 "Hg6 mi
1:20 pm75 °FPassing clouds.8 mph54%29.92 "Hg6 mi
12:50 pm75 °FPassing clouds.10 mph50%29.95 "Hg6 mi
12:20 pm73 °FPassing clouds.12 mph53%29.95 "Hg6 mi
11:50 am72 °FPassing clouds.9 mph61%29.98 "Hg6 mi
11:20 am72 °FPassing clouds.9 mph61%29.98 "Hg6 mi
10:50 am68 °FPassing clouds.10 mph64%29.98 "Hg6 mi
10:20 am66 °FPassing clouds.10 mph68%29.98 "Hg6 mi
9:50 am66 °FSunny.10 mph68%29.98 "Hg10 mi
9:20 am66 °FPassing clouds.12 mph68%29.95 "HgN/A
8:50 am66 °FSunny.12 mph68%29.95 "Hg10 mi
8:20 am64 °FSunny.13 mph73%29.95 "Hg10 mi
7:50 am61 °FPassing clouds.10 mph77%29.95 "HgN/A
7:20 am61 °FSunny.13 mph77%29.95 "Hg10 mi
6:50 am59 °FPassing clouds.10 mph82%29.92 "HgN/A
6:20 am59 °FSunny.8 mph82%29.92 "Hg10 mi
Weather by CustomWeather, © 2017

See weather overviewHow to use our weather pages